Location: Ab? ar R?sh Ba?r?
(24.1861°N, 32.8847°E)
Time: 22:48:46
(UTC+00:00)

deb Chang Zheng 4 - Pass Details

Date: 24 October 2021
Orbit: 595 x 616 km, 98.6° (Epoch: 05 December)

Event Time Altitude Azimuth Distance (km) Brightness Sun altitude
Rises 15:58:30 0° 166° (SSE) 2,818 6.9 -10.7°
Reaches altitude 10° 16:00:39 10° 165° (SSE) 1,920 6.0 -11.2°
Maximum altitude 16:04:49 86° 78° (ENE) 600 3.4 -12.1°
Drops below altitude 10° 16:09:00 10° 349° (NNW) 1,934 6.1 -13.1°
Sets 16:11:11 0° 349° (NNW) 2,841 7.0 -13.6°
